Regional Weather Roundup
Issued by NWS

Home | Current Version | Previous Version | Graphics & Text | Print | Product List | Glossary On
Versions: 1 2 3 4 5 6 7 8 9 10 11 12 13 14 15 16 17 18 19 20 21 22 23 24 25 26 27 28 29 30 31 32 33 34 35 36 37 38 39 40 41 42 43 44 45 46 47 48 49 50
000
ASUS44 KMEG 210800
RWRTN
TENNESSEE HOURLY STATE WEATHER ROUNDUP
NATIONAL WEATHER SERVICE MEMPHIS TN
300 AM CDT THU AUG 21 2014

TNZ002-004-019-021-049-052-054-088>092-210900-
WEST TENNESSEE

CITY           SKY/WX    TMP DP  RH WIND       PRES   REMARKS
MEMPHIS INTL   PTCLDY    78  71  79 S7        30.04S
NWS MEMPHIS      N/A     76 N/A N/A MISG        N/A
JACKSON        CLEAR     75  71  87 S6        30.04F
DYERSBURG      PTCLDY    75  64  69 S3        30.03F
UNION CITY     CLEAR     73  72  94 S5        30.02F
PARIS          CLEAR     72  70  94 CALM      30.05F
LEXINGTON      CLEAR     72  70  94 CALM      30.06S
SAVANNAH       CLEAR     72  72 100 CALM      30.07S
$$

TNZ008-025-027-028-033-062-065-066-210900-
NORTH MIDDLE TENNESSEE

CITY           SKY/WX    TMP DP  RH WIND       PRES   REMARKS
NASHVILLE      CLEAR     71  69  93 CALM      30.07F
CLARKSVILLE    PTCLDY    70  69  97 CALM      30.05F
COOKEVILLE     CLEAR     66  66 100 CALM      30.10S
CROSSVILLE     PTCLDY    68  62  81 CALM      30.15S
$$

TNZ061-075-076-078-094-096-097-210900-
SOUTH MIDDLE TENNESSEE

CITY           SKY/WX    TMP DP  RH WIND       PRES   REMARKS
FAYETTEVILLE   CLEAR     72  66  83 S5        30.10S
TULLAHOMA      CLEAR     70  66  88 CALM      30.12R
WINCHESTER     CLEAR     70  66  88 SE3       30.10F
COLUMBIA       CLEAR     70  70 100 CALM      30.07S
SHELBYVILLE    CLEAR     70  70 100 CALM      30.10S
$$

TNZ017-018-042-046-047-210900-
NORTHEAST TENNESSEE

CITY           SKY/WX    TMP DP  RH WIND       PRES   REMARKS
TRI CITIES     MOCLDY    66  64  93 CALM      30.14F FOG
ELIZABETHTON   CLOUDY    64  63  94 CALM      30.15F
$$

TNZ012-013-036-069-073-074-210900-
CENTRAL EAST TENNESSEE

CITY           SKY/WX    TMP DP  RH WIND       PRES   REMARKS
KNOXVILLE      MOCLDY    66  66 100 CALM      30.10S FOG
OAK RIDGE      PTCLDY    67  66  97 CALM      30.12S
GATLINBURG     MOSUNNY   64  63  94 CALM      30.10F
$$

TNZ083-085-099-210900-
SOUTHEAST TENNESSEE

CITY           SKY/WX    TMP DP  RH WIND       PRES   REMARKS
CHATTANOOGA    MOCLDY    71  68  90 CALM      30.10F
$$

SKY/WX REPORTED AS FAIR MEANS FEW OR NO CLOUDS BELOW
12 THOUSAND FEET.




USA.gov is the U.S. government's official web portal to all federal, state and local government web resources and services.